Weather History for KELD - August, 2013

Change the Weather History Date:

Thursday, August 22, 2013

  Actual Average Record
Temperature  
Mean Temperature 83 °F 81 °F  
Max Temperature 97 °F 92 °F 106 °F (2000)
Min Temperature 69 °F 70 °F 56 °F (1961)
Degree Days  
Heating Degree Days 0 0  
Month to date heating degree days 0 0  
Since 1 June heating degree days 0 0  
Since 1 July heating degree days 0 0  
Cooling Degree Days 18 16  
Month to date cooling degree days 352 368  
Year to date cooling degree days 1509 1591  
Since 1 June cooling degree days 1231 1280  
Growing Degree Days 33 (Base 50)    
Moisture  
Dew Point 71 °F    
Average Humidity 70    
Maximum Humidity 100    
Minimum Humidity 40    
Precipitation  
Precipitation 1.01 in 0.10 in 1.70 in (1988)
Month to date precipitation 1.01 2.27  
Year to date precipitation 26.83 33.71  
Snow  
Snow 0.00 in - - ()
Month to date snowfall 0.0  
Since 1 June snowfall 0.0  
Since 1 July snowfall 0.0  
Snow Depth 0.00 in    
Sea Level Pressure  
Sea Level Pressure 30.03 in    
Wind  
Wind Speed 3 mph (ESE)    
Max Wind Speed 30 mph    
Max Gust Speed 40 mph    
Visibility 8 miles    
Events Rain , Thunderstorm    
T = Trace of Precipitation, MM = Missing Value Source: NWS Daily Summary

Daily Weather History Graph

Daily Weather History Graph

Search for Another Location

Airport or City:

Trip Planner

Search our weather history database for the weather conditions in past years. The results will help you decide how hot, cold, wet, or windy it might be!

Date:

Astronomy

Aug. 22, 2013 Rise Set
Actual Time 6:39 AM CDT 7:48 PM CDT
Civil Twilight 6:13 AM CDT 8:14 PM CDT
Nautical Twilight 5:42 AM CDT 8:44 PM CDT
Astronomical Twilight 5:10 AM CDT 9:16 PM CDT
Moon 8:43 PM CDT 8:19 AM CDT
Length of Visible Light 14h 00m
Length of Day
13h 09m
Waning Gibbous, 96% of the Moon is Illuminated
Aug 22
Waning Gibbous
Aug 28
Last Quarter
Sep 5
New
Sep 12
First Quarter
Sep 19
Full

Hourly Weather History & Observations

Time (CDT) Temp. Heat Index Dew Point Humidity Pressure Visibility Wind Dir Wind Speed Gust Speed Precip Events Conditions
12:53 AM 75.0 °F - 71.1 °F 87% 30.07 in 10.0 mi South 4.6 mph - N/A   Clear
1:53 AM 73.9 °F - 71.1 °F 91% 30.07 in 10.0 mi South 3.5 mph - N/A   Clear
2:53 AM 73.0 °F - 70.0 °F 90% 30.06 in 10.0 mi South 3.5 mph - N/A   Clear
3:53 AM 73.0 °F - 70.0 °F 90% 30.07 in 10.0 mi SSE 3.5 mph - N/A   Clear
4:53 AM 72.0 °F - 70.0 °F 93% 30.08 in 10.0 mi Calm Calm - N/A   Clear
5:53 AM 71.1 °F - 69.1 °F 93% 30.09 in 10.0 mi Calm Calm - N/A   Clear
6:53 AM 70.0 °F - 68.0 °F 93% 30.10 in 8.0 mi Calm Calm - N/A   Clear
7:53 AM 73.9 °F - 71.1 °F 91% 30.11 in 10.0 mi Calm Calm - N/A   Clear
8:53 AM 78.1 °F - 71.1 °F 79% 30.12 in 10.0 mi SSE 4.6 mph - N/A   Clear
9:53 AM 82.9 °F 88.0 °F 72.0 °F 69% 30.11 in 10.0 mi Variable 4.6 mph - N/A   Clear
10:53 AM 87.1 °F 93.6 °F 72.0 °F 61% 30.11 in 10.0 mi Calm Calm - N/A   Clear
11:53 AM 90.0 °F 96.4 °F 71.1 °F 54% 30.09 in 10.0 mi Calm Calm - N/A   Clear
12:53 PM 90.0 °F 92.8 °F 66.9 °F 46% 30.07 in 10.0 mi Calm Calm - N/A   Clear
1:53 PM 93.0 °F 97.4 °F 68.0 °F 44% 30.04 in 10.0 mi Calm Calm - N/A   Scattered Clouds
2:53 PM 93.9 °F 98.6 °F 68.0 °F 43% 30.02 in 10.0 mi Variable 3.5 mph - N/A   Scattered Clouds
3:53 PM 93.0 °F 96.4 °F 66.9 °F 42% 29.99 in 10.0 mi Calm Calm - N/A   Clear
4:53 PM 96.1 °F 101.0 °F 68.0 °F 40% 29.97 in 10.0 mi East 5.8 mph - N/A   Scattered Clouds
5:53 PM 93.9 °F 97.5 °F 66.9 °F 41% 29.96 in 10.0 mi ESE 3.5 mph - N/A   Clear
6:53 PM 93.0 °F 97.4 °F 68.0 °F 44% 29.96 in 10.0 mi ESE 8.1 mph - N/A   Scattered Clouds
7:19 PM 82.4 °F 92.4 °F 78.8 °F 89% 29.98 in 10.0 mi NNW 10.4 mph - 0.03 in Rain , Thunderstorm Light Thunderstorms and Rain
7:27 PM 78.8 °F - 73.4 °F 83% 29.98 in 2.5 mi NNW 21.9 mph 40.3 mph 0.13 in Rain , Thunderstorm Heavy Thunderstorms and Rain
7:29 PM 78.8 °F - 73.4 °F 83% 29.98 in 1.8 mi NNW 18.4 mph 40.3 mph 0.17 in Rain Heavy Rain
7:37 PM 80.6 °F 83.9 °F 69.8 °F 70% 30.00 in 0.8 mi NNW 21.9 mph 26.5 mph 0.38 in Rain Heavy Rain
7:45 PM 77.0 °F - 68.0 °F 74% 30.01 in 0.5 mi NNE 10.4 mph 28.8 mph 0.62 in Rain , Thunderstorm Heavy Thunderstorms and Rain
7:53 PM 78.1 °F - 70.0 °F 76% 30.00 in 0.8 mi ESE 15.0 mph 18.4 mph 0.83 in Rain , Thunderstorm Heavy Thunderstorms and Rain
8:03 PM 78.8 °F - 69.8 °F 74% 30.00 in 1.5 mi SE 13.8 mph 27.6 mph 0.16 in Rain , Thunderstorm Heavy Thunderstorms and Rain
8:06 PM 77.0 °F - 69.8 °F 78% 30.00 in 3.0 mi SE 13.8 mph 27.6 mph 0.16 in Rain , Thunderstorm Light Thunderstorms and Rain
8:20 PM 78.8 °F - 69.8 °F 74% 30.00 in 9.0 mi SE 5.8 mph - 0.18 in Rain Light Rain
8:28 PM 75.2 °F - 71.6 °F 89% 30.00 in 10.0 mi Calm Calm - 0.18 in   Overcast
8:53 PM 73.9 °F - 72.0 °F 93% 30.00 in 10.0 mi NE 5.8 mph - 0.18 in   Mostly Cloudy
9:53 PM 75.9 °F - 73.9 °F 94% 30.02 in 10.0 mi Calm Calm - N/A   Clear
10:53 PM 75.9 °F - 75.0 °F 97% 30.03 in 8.0 mi Calm Calm - N/A   Mostly Cloudy
11:53 PM 75.9 °F - 75.0 °F 97% 30.02 in 8.0 mi Calm Calm - N/A   Clear